Owensboro, KY

5:00 AM CST on February 24, 2017 (GMT -0600)
Owensboro-Daviess County

Weather History for KOWB - January, 2012

Change the Weather History Date:

Sunday, January 29, 2012

  Actual Average Record
Temperature  
Mean Temperature 38 °F -  
Max Temperature 48 °F 43 °F 69 °F (1975)
Min Temperature 28 °F 24 °F -11 °F (1977)
Degree Days  
Heating Degree Days 27    
Moisture  
Dew Point 24 °F    
Average Humidity 61    
Maximum Humidity 79    
Minimum Humidity 35    
Precipitation  
Precipitation 0.00 in - - ()
Sea Level Pressure  
Sea Level Pressure 30.29 in    
Wind  
Wind Speed 10 mph (WSW)    
Max Wind Speed 20 mph    
Max Gust Speed 29 mph    
Visibility 10 miles    
Events      
Averages and records for this station are not official NWS values.
T = Trace of Precipitation, MM = Missing Value Source: NWS Daily Summary

Daily Weather History Graph

Daily Weather History Graph

Search for Another Location

Airport or City:

Trip Planner

Search our weather history database for the weather conditions in past years. The results will help you decide how hot, cold, wet, or windy it might be!

Date:

Astronomy

Jan. 29, 2012 Rise Set
Actual Time 6:55 AM CST 5:08 PM CST
Civil Twilight 6:27 AM CST 5:36 PM CST
Nautical Twilight 5:56 AM CST 6:07 PM CST
Astronomical Twilight 5:25 AM CST 6:38 PM CST
Moon 9:54 AM CST (1/29) 11:44 PM CST (1/29)
Length of Visible Light 11h 08m
Length of Day
10h 13m
Waxing Crescent, 37% of the Moon is Illuminated
Jan 29
Waxing Crescent
Jan 30
First Quarter
Feb 7
Full
Feb 14
Last Quarter
Feb 21
New

Hourly Weather History & Observations

Time (CST) Temp. Windchill Dew Point Humidity Pressure Visibility Wind Dir Wind Speed Gust Speed Precip Events Conditions
12:56 AM 28.0 °F 20.8 °F 21.0 °F 75% 30.33 in 10.0 mi SW 6.9 mph - N/A   Clear
1:56 AM 30.0 °F 21.1 °F 22.1 °F 72% 30.32 in 10.0 mi SW 10.4 mph - N/A   Clear
2:56 AM 30.0 °F 22.4 °F 23.0 °F 75% 30.31 in 10.0 mi SW 8.1 mph - N/A   Clear
3:56 AM 29.1 °F 23.0 °F 23.0 °F 78% 30.28 in 10.0 mi South 5.8 mph - N/A   Clear
4:56 AM 30.0 °F 21.7 °F 23.0 °F 75% 30.28 in 10.0 mi SW 9.2 mph - N/A   Clear
5:56 AM 30.2 °F 20.8 °F 23.0 °F 75% 30.28 in 10.0 mi SW 11.5 mph - N/A   Clear
6:56 AM 31.1 °F 21.4 °F 23.0 °F 72% 30.29 in 10.0 mi SW 12.7 mph - N/A   Clear
7:56 AM 34.0 °F 23.8 °F 24.1 °F 67% 30.29 in 10.0 mi SW 16.1 mph - N/A   Clear
8:56 AM 37.9 °F 28.5 °F 25.2 °F 60% 30.28 in 10.0 mi SW 17.3 mph 25.3 mph N/A   Clear
9:56 AM 42.8 °F 34.8 °F 26.6 °F 53% 30.26 in 10.0 mi WSW 17.3 mph 25.3 mph N/A   Clear
10:56 AM 45.9 °F 38.3 °F 25.2 °F 44% 30.26 in 10.0 mi WSW 19.6 mph - N/A   Clear
11:56 AM 48.9 °F - 27.1 °F 43% 30.24 in 10.0 mi WSW 18.4 mph - N/A   Partly Cloudy
12:56 PM 48.9 °F - 24.1 °F 38% 30.23 in 10.0 mi West 18.4 mph 28.8 mph N/A   Clear
1:56 PM 48.9 °F - 22.1 °F 35% 30.25 in 10.0 mi West 19.6 mph 27.6 mph N/A   Clear
2:56 PM 48.9 °F - 23.0 °F 36% 30.26 in 10.0 mi WNW 16.1 mph 23.0 mph N/A   Clear
4:56 PM 42.8 °F 38.0 °F 23.0 °F 46% 30.29 in 10.0 mi NW 8.1 mph - N/A   Clear
5:56 PM 39.9 °F 36.7 °F 23.0 °F 51% 30.31 in 10.0 mi NW 4.6 mph - N/A   Clear
6:56 PM 39.9 °F 37.8 °F 22.1 °F 49% 30.32 in 10.0 mi Variable 3.5 mph - N/A   Clear
7:56 PM 36.0 °F 32.1 °F 23.0 °F 59% 30.32 in 10.0 mi NW 4.6 mph - N/A   Clear
8:56 PM 32.9 °F - 24.1 °F 70% 30.31 in 10.0 mi Calm Calm - N/A   Clear
9:56 PM 34.0 °F - 24.1 °F 67% 30.31 in 10.0 mi Calm Calm - N/A   Clear
10:56 PM 32.0 °F 27.5 °F 25.2 °F 76% 30.31 in 10.0 mi SSE 4.6 mph - N/A   Clear
11:56 PM 30.0 °F 24.1 °F 24.1 °F 79% 30.30 in 10.0 mi SSE 5.8 mph - N/A   Clear